Location: Glen Head
(40.8354°N, 73.6237°W)
Time: 02:27:55
(UTC+00:00)

Daily predictions for brighter satellites

Satellite Brightness Start Highest point End
(mag) Time Altitude Azimuth Time Altitude Azimuth Time Altitude Azimuth
H-2A R/B 2.5 00:23:44 10° S 00:28:55 67° WSW 00:33:59 10° NNW
ATLAS 5 CENTAUR R/B 3.3 00:27:06 10° NNW 00:32:17 34° NE 00:38:11 10° ESE
Iridium 2 4.1 00:31:31 10° N 00:35:15 65° W 00:38:57 10° S
Cosmos 389 Rocket 4.4 00:33:31 10° NE 00:35:32 15° ENE 00:37:34 10° ESE
Cosmos 1833 Rocket 3.8 00:31:51 10° SSE 00:36:09 23° E 00:40:28 10° NE
Cosmos 1346 Rocket 3.8 00:32:22 10° SSW 00:36:14 51° WNW 00:40:09 10° N
Cosmos 1697 Rocket 4.4 00:33:40 10° N 00:37:33 19° NE 00:41:24 10° E
DMSP B5D2-2 4.2 00:32:26 10° NNE 00:37:35 57° E 00:42:43 10° S
FREGAT/IRIS 2.2 00:35:33 10° SSE 00:38:10 76° ENE 00:40:48 10° N
MetOp-A 4.3 00:33:40 10° SSE 00:38:53 57° ENE 00:44:08 10° N
Cosmos 1633 2.5 00:36:20 10° S 00:39:53 88° WNW 00:43:25 10° N
Cosmos 2366 rocket 4.0 00:36:22 10° S 00:42:36 78° E 00:48:49 10° N
Cosmos 1500 Rocket 3.5 00:43:01 10° S 00:47:16 66° E 00:51:34 10° NNE
SL-8 R/B 4.4 00:43:51 10° NW 00:48:33 48° NNE 00:53:14 10° E
Resurs 1-3 4.0 00:45:21 10° SE 00:49:32 46° ENE 00:53:44 10° N
SPOT 3 Rocket 3.8 00:47:43 10° SE 00:52:45 52° ENE 00:57:48 10° N
Cosmos 1656 4.3 00:47:49 10° N 00:52:58 40° ENE 00:57:33 13° SE
Cosmos 1862 3.8 00:49:58 10° SSE 00:53:44 39° E 00:57:32 10° NNE
SL-8 Rocket 4.4 00:49:20 10° SSW 00:55:28 67° W 01:01:40 10° N
Cosmos 2251 Rocket 3.6 00:51:18 10° SSW 00:56:33 84° WNW 01:01:51 10° NNE
SJ-6B 3.2 00:52:40 10° S 00:56:46 71° W 01:00:48 10° NNW
IRIDIUM 104 4.5 00:59:45 10° SSE 01:04:48 54° E 01:09:53 10° NNE
BREEZE-M DEB (TANK) 3.4 01:03:15 10° W 01:05:28 34° NNW 01:09:18 10° NE
SL-08 R/B 4.4 01:01:18 10° S 01:07:32 79° E 01:13:42 10° N
BREEZE-M DEB (TANK) 2.0 01:03:03 10° WNW 01:08:53 89° SSW 01:10:38 21° SE
COSMOS 2406 3.2 01:03:59 10° S 01:09:41 67° ESE 01:15:23 10° NNE
Cosmos 1805 Rocket 3.7 01:05:56 10° S 01:10:14 56° E 01:14:36 10° NNE
BREEZE-M DEB (TANK) 4.3 01:05:28 10° WNW 01:11:44 28° WSW 01:14:27 10° S
IRIDIUM 114 4.3 01:08:47 10° S 01:13:56 67° E 01:19:07 10° N
Cosmos 614 Rocket 3.9 01:16:57 10° S 01:22:03 69° ESE 01:27:13 10° NNE
IRIDIUM 103 4.3 01:17:50 10° S 01:23:02 82° E 01:28:17 10° N
Meteor 2-6 Rocket 4.2 01:19:10 10° N 01:24:41 87° W 01:30:13 11° S
CENTAUR R/B 4.3 01:26:50 10° E 01:26:50 10° E 01:27:04 10° E
Cosmos 2228 Rocket 3.4 01:22:38 10° NNW 01:27:03 66° W 01:31:23 10° S
Cosmos 2082 Rocket 2.7 01:22:09 10° S 01:27:19 36° ESE 01:32:29 10° NE
Cosmos 1782 4.3 01:23:46 10° NNW 01:27:28 36° W 01:31:09 10° SSW
Meteor 1-4 Rocket 3.8 01:29:05 10° NNE 01:31:54 22° ENE 01:32:08 22° E
Cosmos 1633 Rocket 3.6 01:30:40 26° SE 01:32:27 37° E 01:36:33 10° NNE
Resurs 01 Rocket 1.6 01:34:15 19° S 01:37:26 81° WSW 01:41:53 10° NNW
ERS-1 Rocket 4.2 01:36:08 21° E 01:37:52 26° ENE 01:41:59 10° N
SL-4 R/B 1.7 01:34:44 10° SW 01:38:45 74° SE 01:42:28 10° ENE
Cosmos 1818 3.8 01:37:21 10° NNW 01:42:44 59° NE 01:45:21 30° ESE
Cosmos 1184 Rocket 4.3 01:46:10 23° ENE 01:46:10 23° ENE 01:48:03 10° NNE
Cosmos 1707 Rocket 3.5 01:41:01 10° N 01:45:21 66° E 01:47:04 35° SSE
Meteor 1-10 Rocket 4.5 01:40:40 10° NNW 01:46:19 70° W 01:51:07 15° S
Meteor 1-27 Rocket 3.8 01:40:37 10° N 01:46:33 73° E 01:50:03 26° SSE
NOSS 3-2 (A) 3.8 01:46:03 27° SSE 01:47:58 35° ESE 01:53:27 10° NE
CZ-2C R/B 4.5 01:44:29 10° N 01:48:57 30° WNW 01:53:26 10° SW
Cosmos 972 4.3 01:43:49 10° NNW 01:49:01 84° ENE 01:51:24 31° SSE
Cosmos 220 Rocket 3.9 01:46:48 10° NNW 01:51:01 86° WSW 01:52:37 37° SSE
Lacrosse 5 4.3 01:47:59 10° NNW 01:51:02 16° NNE 01:54:06 10° NE
Spot 2 Rocket 3.5 01:49:15 32° SE 01:51:34 64° ENE 01:56:37 10° N
MetOp-B 4.1 01:50:44 26° SSE 01:53:51 89° E 01:59:14 10° NNW
Cosmos 1470 Rocket 4.2 01:54:07 35° E 01:54:21 36° E 01:58:23 10° NNE
USA 267 3.9 01:48:01 10° NE 01:54:24 58° NW 02:00:47 10° WSW
Cosmos 1190 Rocket 3.9 01:52:25 10° SSW 01:57:40 85° ESE 02:02:59 10° NNE
Cosmos 1812 3.5 01:54:51 10° NNW 01:58:34 49° W 02:00:28 25° SSW
Shenzhou-11 Module 3.2 01:57:06 10° WNW 01:58:37 32° NW 01:58:37 32° NW
GP-B 3.1 01:55:49 10° N 02:00:13 60° E 02:01:15 46° SE
IGS 5A 3.3 02:00:02 47° SSE 02:01:09 81° ENE 02:05:18 10° N
Cosmos 407 Rocket 3.7 01:56:05 10° SSW 02:01:25 73° WNW 02:06:44 10° NNE
Intercosmos 25 4.1 02:00:05 10° NNW 02:04:08 45° W 02:05:31 28° SSW
Cosmos 1980 Rocket 2.7 02:00:29 10° NNW 02:05:57 46° ENE 02:07:40 36° ESE
OE (NEXTSAT) 4.3 02:02:58 10° WNW 02:06:29 75° NNE 02:06:35 74° NE
Cosmos 389 Rocket 4.3 02:07:20 10° NW 02:10:16 27° W 02:11:47 19° SW
Cosmos 1862 Rocket 3.6 02:07:21 10° N 02:11:47 61° E 02:12:18 56° ESE
Cosmos 1934 Rocket 4.0 02:07:18 18° S 02:12:15 86° W 02:18:41 10° N
Cosmos 921 Rocket 4.1 02:09:46 10° N 02:13:22 29° ENE 02:13:22 29° ENE
Terra 2.7 02:13:21 33° E 02:13:47 34° ENE 02:18:03 10° N
SPOT 1/Viking Rocket 3.5 02:12:53 43° SSE 02:14:39 85° ENE 02:19:54 10° NNW
ATLAS 5 CENTAUR R/B 3.0 02:11:24 10° NW 02:17:11 50° WSW 02:20:16 29° S
Cosmos 1238 Rocket 4.2 02:20:35 21° NNE 02:20:35 21° NNE 02:21:47 10° NNE
Cosmos 1833 Rocket 3.6 02:14:16 10° SW 02:19:41 48° WNW 02:25:09 10° NNE
Cosmos 1697 Rocket 2.8 02:16:29 10° NNW 02:22:05 71° WSW 02:23:56 43° S
SPOT 5 2.7 02:24:21 57° ENE 02:24:24 57° ENE 02:28:39 10° N
deb Kosmos-1763 4.3 02:26:02 62° W 02:26:08 63° WNW 02:29:45 10° NNE
USA 234 3.2 02:25:18 40° ESE 02:27:53 79° NE 02:34:26 10° NW
USA 32 4.0 02:27:35 45° S 02:29:15 84° W 02:34:31 10° N
Cosmos 1140 Rocket 4.2 02:24:11 10° SW 02:29:17 53° WNW 02:34:27 10° N
SL-8 R/B 4.0 02:26:28 10° WNW 02:31:09 51° SW 02:31:18 51° SSW
CARTOSAT-1 3.4 02:31:46 83° ESE 02:31:51 84° ENE 02:36:12 10° N
FALCON 9 DEB 4.1 02:29:55 10° WSW 02:32:58 47° WNW 02:32:58 47° WNW
Meteor 1-25 Rocket 4.1 02:33:03 48° S 02:34:41 88° ESE 02:40:19 10° N
Aureole 1 Rocket 4.4 02:28:47 13° SSW 02:34:42 75° WNW 02:42:46 10° NNE
Cosmos 1933 Rocket 3.6 02:36:00 66° NE 02:36:00 66° NE 02:39:59 10° NNE
Cosmos 1867 3.7 02:32:25 10° SW 02:37:50 73° WNW 02:43:19 10° NNE
USA 238 DEB 3.5 02:36:30 10° SSW 02:43:06 86° ESE 02:49:58 10° NE
USA 238 3.5 02:36:50 11° SSW 02:43:12 85° SE 02:50:04 10° NE
Cosmos 2360 4.5 02:40:33 10° NNW 02:46:11 60° WSW 02:47:22 49° SSW
Cosmos 1850 Rocket 4.4 02:51:28 50° ENE 02:51:28 50° ENE 02:55:49 10° NNE
Cosmos 2100 Rocket 4.2 02:53:47 51° E 02:53:49 51° E 02:59:45 10° NNE
Cosmos 2242 Rocket 3.8 02:51:17 10° N 02:55:07 65° N 02:55:07 65° N
Cosmos 1605 Rocket 4.4 02:54:53 33° SW 02:57:35 59° W 03:03:37 10° N
Cosmos 1703 Rocket 4.2 02:54:58 10° N 02:58:19 50° NNE 02:58:19 50° NNE
Okean 1 4.2 02:56:12 10° N 02:59:12 48° NNW 02:59:12 48° NNW
SL-16 R/B 2.9 02:58:22 10° N 03:03:43 40° ENE 03:03:57 40° ENE
Cosmos 1437 Rocket 4.3 03:03:59 10° N 03:06:09 32° N 03:06:09 32° N
Cosmos 2173 Rocket 3.9 03:10:41 65° E 03:10:41 65° E 03:16:45 10° NNE
Cosmos 2082 Rocket 3.8 03:06:19 10° WSW 03:11:23 33° WNW 03:16:29 10° N
CENTAUR R/B 2.2 03:13:55 80° S 03:14:15 84° ESE 03:21:06 10° NE
ERS-1 Rocket 4.0 03:16:08 36° WSW 03:16:28 37° W 03:21:07 10° NNW
Cosmos 2278 4.5 03:11:55 10° NW 03:17:15 41° WSW 03:17:39 41° WSW
NOSS 3-3 (A) 4.5 03:10:41 10° NW 03:18:22 84° NE 03:20:07 60° SE
NOSS 3-3 (C) 4.5 03:10:47 10° NNW 03:18:28 84° NE 03:20:13 60° SE
SL-4 R/B 4.0 03:15:27 10° WNW 03:18:36 24° NNW 03:19:22 22° N
Cosmos 841 Rocket 4.4 03:16:54 10° N 03:21:13 39° NE 03:21:13 39° NE
Okean 1-7 4.1 03:20:03 10° NNW 03:23:05 43° NNW 03:23:05 43° NNW
Cosmos 1741 Rocket 4.2 03:25:03 69° NNW 03:25:03 69° NNW 03:29:50 10° NNE
Cosmos 468 Rocket 4.2 03:19:35 10° NNW 03:24:19 70° NNW 03:24:19 70° NNW
Cosmos 540 Rocket 4.4 03:21:20 10° N 03:25:30 40° NE 03:25:30 40° NE
Cosmos 2061 Rocket 4.2 03:26:59 55° ENE 03:26:59 55° ENE 03:32:28 10° NNE
Cosmos 2322 Rocket 2.7 03:21:09 10° NNW 03:26:26 50° NE 03:26:26 50° NE
Cosmos 2016 Rocket 4.2 03:29:06 59° ENE 03:29:06 59° ENE 03:34:54 10° NNE
Cosmos 1459 Rocket 3.9 03:33:07 84° WSW 03:33:16 85° W 03:39:39 10° N
Lacrosse 5 2.8 03:30:19 10° NW 03:34:47 43° NNE 03:34:47 43° NNE
Cosmos 2360 Rocket 3.2 03:36:11 10° N 03:41:10 36° NE 03:41:10 36° NE
NOSS 3-2 (C) 3.8 03:42:27 46° W 03:43:46 57° NW 03:50:08 10° NNE
ATLAS 5 CENTAUR R/B 3.4 03:40:29 10° NNW 03:43:14 43° NE 03:43:14 43° NE
Cosmos 1802 Rocket 4.0 03:45:48 84° WNW 03:45:48 84° WNW 03:52:10 10° N
Cosmos 1980 Rocket 3.8 03:45:08 10° NW 03:49:26 24° W 03:49:26 24° W
Terra 3.6 03:52:15 24° W 03:52:15 24° W 03:55:28 10° NW
Cosmos 2333 Rocket 4.0 03:54:33 10° N 03:58:58 22° NE 03:59:39 22° ENE
Cosmos 2233 Rocket 4.4 04:04:06 53° NE 04:04:06 53° NE 04:09:21 10° NNE
Tsikada Rocket 4.2 04:21:02 10° N 04:26:38 67° NW 04:26:38 67° NW
ATLAS 3B R/B 2.7 04:29:08 73° N 04:29:08 73° N 04:35:14 10° NNE
SL-16 R/B 3.9 04:42:49 10° NW 04:45:47 24° WNW 04:45:47 24° WNW
BREEZE-M DEB (TANK) 4.4 04:39:17 10° WNW 04:47:58 54° NNW 04:47:58 54° NNW
Cosmos 2322 4.4 04:44:13 10° NNW 04:48:32 50° N 04:48:32 50° N
Cosmos 2219 Rocket 3.0 04:55:16 10° NNW 04:59:47 48° NNE 04:59:47 48° NNE
Lacrosse 4 Rocket 3.8 05:06:14 22° N 05:06:14 22° N 05:07:51 10° NNE
Cosmos 2322 Rocket 4.2 05:06:01 10° NW 05:08:14 18° WNW 05:08:14 18° WNW
Lacrosse 5 4.4 05:13:30 10° WNW 05:13:57 12° WNW 05:13:57 12° WNW
CZ-2D R/B 4.3 05:17:39 10° NE 05:20:26 17° E 05:20:26 17° E
COSMOS 2428 3.4 05:18:27 10° NNW 05:22:48 52° N 05:22:48 52° N
Cosmos 2360 Rocket 3.9 05:20:18 10° NW 05:22:55 23° WNW 05:22:55 23° WNW
Cosmos 2297 Rocket 3.5 05:36:17 32° ENE 05:36:17 32° ENE 05:39:57 10° NE
Cosmos 2219 4.3 05:38:26 37° ENE 05:38:26 37° ENE 05:42:15 10° NE
Cosmos 2333 Rocket 3.3 05:37:59 10° NNW 05:41:37 38° NW 05:41:37 38° NW
Cosmos 1464 Rocket 4.4 05:48:38 52° NW 05:48:38 52° NW 05:54:01 10° N
Cosmos 2237 Rocket 2.9 05:44:28 10° NNW 05:49:50 48° ENE 05:49:50 48° ENE
ATLAS 3B CENTAUR R/B 4.4 06:06:59 38° SSE 06:06:59 38° SSE 06:12:47 10° ESE
Nadezhda 4 Rocket 4.4 06:07:18 10° NNW 06:12:35 53° WNW 06:12:35 53° WNW
SL-16 R/B 2.9 06:15:17 54° ESE 06:16:15 60° ENE 06:22:24 10° N
Resurs 1-4 Rocket 2.6 06:13:06 10° NNE 06:17:38 52° ENE 06:17:38 52° ENE
Cosmos 2227 Rocket 2.3 06:24:31 71° NE 06:24:31 71° NE 06:29:37 10° NNE
Meteor 1-15 Rocket 4.3 06:25:29 73° NE 06:25:29 73° NE 06:30:41 10° NNE
Cosmos 1092 Rocket 4.0 06:20:44 10° N 06:26:32 70° WNW 06:26:32 70° WNW
USA 215 3.5 06:22:25 10° NE 06:28:46 52° SE 06:28:48 52° SE
SJ 16-02 2.8 06:31:05 33° ENE 06:31:05 33° ENE 06:34:06 10° NNE
Cosmos 1375 Rocket 4.4 06:38:03 74° SSE 06:38:27 77° ESE 06:45:05 10° NE
Cosmos 1461 4.4 06:41:55 32° ENE 06:41:55 32° ENE 06:44:54 10° NE
Cosmos 2219 Rocket 4.3 06:40:17 10° NW 06:41:28 14° WNW 06:41:28 14° WNW
Cosmos 2082 3.7 06:45:22 69° ESE 06:45:22 69° ESE 06:50:57 10° NNE
IRAS Rocket 4.3 06:55:23 63° WNW 06:55:23 63° WNW 07:00:27 10° NNW
NOSS 3-1 (C) 3.7 06:55:46 46° SE 06:56:06 47° ESE 07:01:50 10° NE
SL-16 R/B 2.5 06:53:52 10° NNW 06:59:33 64° ENE 07:02:01 34° SE
IRS-1D 3.7 06:54:32 10° NNE 06:59:34 62° ESE 06:59:55 60° ESE
Cosmos 1626 3.5 06:57:34 10° N 07:00:06 37° NNE 07:00:06 37° NNE
CZ-2D R/B 2.3 06:56:15 10° N 07:01:40 61° WNW 07:01:45 61° WNW
DNEPR-1 R/B 3.8 06:56:59 10° NNW 07:02:26 84° N 07:02:26 84° N
ADEOS II 2.4 06:58:17 10° NNE 07:03:28 57° E 07:04:13 52° SE
NPP 3.6 06:58:16 10° N 07:03:38 69° WNW 07:03:45 69° W
CZ-4B R/B 3.3 06:58:58 10° NNE 07:03:38 76° E 07:03:38 76° E
Meteor 1-24 Rocket 3.7 06:58:44 10° N 07:04:10 70° E 07:05:12 56° SE
SL-24 R/B 4.2 07:11:47 85° SSE 07:11:56 89° E 07:16:55 10° N
Meteor 2-5 Rocket 3.5 07:07:15 10° NNW 07:12:52 73° W 07:13:17 70° SW
Cosmos 158 Rocket 4.2 07:07:54 10° NNW 07:13:18 72° ENE 07:15:17 39° SE
Cosmos 923 Rocket 3.9 07:09:31 10° NNW 07:14:53 85° WSW 07:15:28 71° S
Cosmos 2263 Rocket 3.6 07:13:04 22° SE 07:15:13 29° ESE 07:19:55 10° NE
Cosmos 1470 3.3 07:18:11 54° E 07:18:11 54° E 07:21:54 10° NNE
Cosmos 2180 Rocket 4.4 07:17:39 58° SW 07:18:46 72° W 07:24:56 10° N
Cosmos 2297 Rocket 3.2 07:18:06 31° WNW 07:18:51 32° WNW 07:23:54 10° N
Cosmos 2219 4.5 07:20:21 25° WNW 07:21:15 27° NW 07:25:57 10° N
Cosmos 2098 Rocket 3.9 07:18:09 10° N 07:23:14 70° E 07:26:22 30° SSE
Cosmos 2279 Rocket 4.2 07:22:51 47° WSW 07:23:44 51° WNW 07:29:45 10° N
Meteor 1-22 Rocket 4.0 07:26:25 60° WSW 07:26:56 63° WNW 07:32:12 10° N
Cosmos 1544 Rocket 3.8 07:28:37 55° SE 07:29:20 65° E 07:33:46 10° NNE
USA 229 DEB 3.6 07:27:41 46° SSW 07:29:45 75° ESE 07:36:32 10° NE
USA 229 3.6 07:27:47 46° SSW 07:29:50 74° ESE 07:36:35 10° NE
Cosmos 2237 Rocket 3.8 07:29:15 10° NW 07:31:36 19° WNW 07:31:36 19° WNW
COBE Rocket 3.9 07:38:24 53° W 07:38:24 53° W 07:42:50 10° NNW
Timation 1 Rocket 4.4 07:36:16 42° S 07:38:20 75° ESE 07:44:18 10° NNE
NOSS 2-3 (C) 3.9 07:40:03 48° SSE 07:40:45 54° ESE 07:45:20 10° NE
SeaSat 1 4.4 07:36:58 10° NE 07:40:46 22° ESE 07:44:02 12° SSE
TIMED 4.4 07:36:28 10° NNW 07:40:43 66° W 07:40:43 66° W
NOSS 3-1 (A) 3.4 07:39:16 41° S 07:41:01 62° ESE 07:47:02 10° NE
SL-14 R/B 4.1 07:38:11 10° NNW 07:40:59 37° NW 07:40:59 37° NW
Okean 1-7 Rocket 3.5 07:43:16 10° NNW 07:47:38 64° W 07:48:09 59° SW
Cosmos 1607 4.1 07:51:00 10° NW 07:57:15 54° WSW 08:03:29 10° S
Cosmos 1758 3.4 07:57:09 55° WSW 07:57:34 58° W 08:01:33 10° N
Resurs 1-4 Rocket 3.7 07:54:02 10° NNW 07:57:40 19° WNW 07:58:42 18° WNW
IRS-P3 4.2 07:52:24 10° N 07:57:40 61° WNW 07:59:35 38° SW
OAO 3 Rocket 4.2 07:58:03 30° S 07:58:34 30° SSE 08:02:53 10° ESE
BREEZE-M DEB (TANK) 4.3 07:57:01 28° S 07:58:48 42° SE 08:09:43 10° ENE
SL-16 R/B 3.8 08:00:22 22° W 08:00:22 22° W 08:04:55 10° NW
Cosmos 1726 2.0 07:59:55 51° S 08:00:45 81° E 08:04:26 10° N
CZ-2C R/B 3.7 08:01:18 10° NNE 08:05:01 44° E 08:07:13 21° SSE
Cosmos 1943 4.1 07:59:41 10° NNW 08:05:08 49° ENE 08:10:34 10° SE
Cosmos 2227 Rocket 4.1 08:06:20 13° WNW 08:08:41 17° NW 08:12:16 10° N
SJ 16-02 3.0 08:08:04 18° WNW 08:08:43 19° WNW 08:11:53 10° NNW
Cosmos 2112 Rocket 4.3 08:04:01 10° NNW 08:08:54 42° WSW 08:10:29 33° SW
Cosmos 1340 Rocket 3.4 08:10:57 35° W 08:11:24 37° WNW 08:15:07 10° N
USA 215 3.8 08:05:28 10° NE 08:11:44 50° NNW 08:16:08 20° W
Cosmos 1937 Rocket 3.9 08:10:15 32° WSW 08:12:18 49° WNW 08:17:29 10° N
BREEZE-M DEB (TANK) 4.1 08:12:19 23° SSE 08:13:41 32° ESE 08:20:21 10° ENE
Cosmos 1908 4.3 08:11:23 15° SSE 08:14:24 44° E 08:18:09 10° NNE
Cosmos 2150 Rocket 4.5 08:13:43 17° S 08:17:37 57° ESE 08:22:42 10° NNE
Cosmos 2266 Rocket 4.5 08:12:42 10° NNW 08:18:35 41° W 08:21:46 24° SW
Cosmos 1953 2.3 08:17:50 34° SSW 08:19:26 67° W 08:23:28 10° N
SL-4 R/B 1.4 08:17:51 27° WNW 08:19:27 58° SW 08:22:47 10° SE
Meteor 2-21 Rocket 4.4 08:14:05 10° N 08:20:10 85° E 08:26:15 10° S
Cosmos 1455 Rocket 4.3 08:19:54 23° W 08:20:35 24° WNW 08:24:13 10° NNW
Meteor 1-21 Rocket 4.1 08:15:32 10° N 08:21:06 85° W 08:26:38 10° S
ARIANE 5 R/B 2.8 08:16:13 10° N 08:21:17 52° WNW 08:24:01 26° SW
Landsat 5 4.0 08:17:35 10° SSE 08:21:22 55° ENE 08:25:18 10° N
ATLAS CENTAUR R/B 3.1 08:18:12 12° SSE 08:21:22 26° ESE 08:24:46 10° ENE
Cosmos 2227 4.2 08:18:11 27° SW 08:21:28 72° WNW 08:27:15 10° NNE
Cosmos 1626 Rocket 3.6 08:19:47 10° NNW 08:24:01 57° W 08:26:39 22° SSW
ATLAS 3B CENTAUR R/B 3.8 08:20:18 20° WSW 08:26:17 32° SSW 08:31:42 10° SE
MSX 3.9 08:21:02 10° NNE 08:26:50 79° ESE 08:32:20 11° S
SL-08 R/B 3.9 08:25:32 24° SSW 08:27:52 39° W 08:32:31 10° NNW
CZ-2D R/B 3.6 08:25:09 10° N 08:29:04 51° WNW 08:30:55 27° SW
Cosmos 372 Rocket 4.0 08:27:50 23° SSW 08:31:10 71° WNW 08:36:24 10° NNE
IDEFIX/ARIANE 42P 2.6 08:27:28 10° N 08:32:36 63° WNW 08:36:21 19° SSW
Meteor 2-14 Rocket 4.4 08:28:44 10° NNW 08:34:42 61° W 08:40:38 10° S
CZ-2C R/B 3.4 08:31:05 10° NNE 08:35:25 42° E 08:39:48 10° S
Meteor 1-16 Rocket 4.1 08:32:19 15° SSW 08:36:50 77° W 08:42:21 10° N
Cosmos 2228 3.6 08:33:56 10° S 08:38:11 58° E 08:42:31 10° NNE
NOSS 2-3 (E) 4.3 08:36:52 22° WSW 08:39:15 43° NW 08:43:56 10° NNE
Nadezhda 2 Rocket 4.5 08:33:35 10° NNW 08:39:44 64° W 08:45:46 10° S
Cosmos 1328 4.1 08:36:46 10° N 08:40:45 68° E 08:44:43 10° SSE
Meteor 1-28 Rocket 4.4 08:40:36 22° WSW 08:41:07 23° W 08:44:11 10° NW
USA 267 3.3 08:35:49 10° SE 08:42:22 89° NE 08:48:56 10° NW
ADEOS II 3.7 08:39:06 10° NNW 08:42:41 19° WNW 08:45:08 14° W
Cosmos 1758 Rocket 3.6 08:38:25 10° N 08:42:45 81° E 08:47:05 10° S
SL-16 R/B 3.6 08:39:26 10° WNW 08:43:03 18° W 08:43:47 17° WSW
NOSS 3-1 (C) 4.5 08:43:10 14° W 08:47:09 31° NW 08:52:44 10° NNE
Cosmos 1703 3.2 08:43:53 10° N 08:47:52 82° W 08:51:49 10° S
Cosmos 724 4.4 08:42:20 10° NW 08:48:16 60° WSW 08:54:15 10° SSE
Cosmos 1125 Rocket 3.7 08:44:48 10° S 08:49:58 72° ESE 08:55:14 10° NNE
Cosmos 1300 4.1 08:49:02 10° SSE 08:52:35 38° E 08:56:09 10° NNE
H-2A R/B 2.1 08:52:18 10° S 08:56:18 49° W 09:00:18 10° NNW
Cosmos 2263 Rocket 2.8 08:54:47 15° WSW 08:58:56 39° WNW 09:04:09 10° N
Atlas Centaur 2 4.2 08:53:57 11° SSW 08:59:50 27° SSE 09:06:32 10° ESE
Aureole 3 4.2 08:55:40 10° S 09:00:40 86° W 09:07:04 10° N
NOSS 8 (F) 4.3 09:00:58 13° SSW 09:04:03 82° SE 09:07:05 10° NE
FALCON 9 DEB 3.4 09:01:04 10° WNW 09:04:24 45° SW 09:07:42 10° SSE
Cosmos 1825 Rocket 3.4 09:00:24 10° NNW 09:04:44 73° W 09:09:01 10° S
Cosmos 1484 Rocket 4.5 09:07:56 10° NNE 09:11:19 32° E 09:14:40 10° SSE
Cosmos 1953 Rocket 3.7 09:07:07 10° N 09:11:38 87° E 09:16:06 10° S
Delta 2 Rocket 4.2 09:11:44 11° SW 09:14:49 32° SSE 09:18:31 10° ESE
SeaSat 1 2.9 09:13:42 10° NNE 09:18:28 48° WNW 09:23:11 10° SW
Meteor 2-15 4.4 09:16:18 10° SSW 09:22:21 78° W 09:28:26 10° N
Cosmos 1603 4.4 09:18:07 10° NW 09:23:07 32° WSW 09:28:04 10° SSW
PAYLOAD A 4.3 09:18:44 10° N 09:23:58 55° WNW 09:29:00 10° SSW
Cosmos 1844 Rocket 2.9 09:19:19 10° SSW 09:24:51 73° ESE 09:30:25 10° NNE
ADEOS Rocket 3.9 09:19:32 10° SSE 09:27:02 76° ENE 09:34:50 10° N
Cosmos 1606 Rocket 4.2 09:25:32 10° SW 09:29:41 37° WNW 09:33:52 10° N
